• în România
  • Lista ţărilor
  • Pe 7 zile
  • Temperatura apei
  • Hartă satelitară
  • Meteo pe hartă
  • Widget-uri
  • user-avatar
    Intrare

    Meteo pe oră la Miedzyrzecze

    Astăzi, 23 Octombrie, Marţi

    Timp Temperatura Precipitaţii Vânt Presiune Umiditate
    00:00 +5°C° 0 mm 3 m/s 750 mmHg 89%
    01:00 +5°C° 0 mm 2 m/s 750 mmHg 89%
    02:00 +4°C° 0 mm 3 m/s 750 mmHg 87%
    03:00 +4°C° 0 mm 3 m/s 749 mmHg 85%
    04:00 +4°C° 0 mm 3 m/s 749 mmHg 83%
    05:00 +4°C° 0 mm 4 m/s 748 mmHg 82%
    06:00 +4°C° 0 mm 4 m/s 747 mmHg 80%
    07:00 +3°C° 0 mm 5 m/s 746 mmHg 79%
    08:00 +4°C° 0.1 mm 6 m/s 746 mmHg 73%
    09:00 +6°C° 0.1 mm 7 m/s 745 mmHg 67%
    10:00 +7°C° 0.1 mm 8 m/s 744 mmHg 61%
    11:00 +7°C° 0.6 mm 9 m/s 743 mmHg 65%
    12:00 +7°C° 0.6 mm 9 m/s 742 mmHg 68%
    13:00 +6°C° 0.6 mm 9 m/s 741 mmHg 71%
    14:00 +7°C° 0.2 mm 9 m/s 741 mmHg 73%
    15:00 +7°C° 0.2 mm 10 m/s 740 mmHg 74%
    16:00 +7°C° 0.2 mm 10 m/s 739 mmHg 76%
    17:00 +8°C° 0.3 mm 10 m/s 739 mmHg 77%
    18:00 +8°C° 0.3 mm 10 m/s 738 mmHg 78%
    19:00 +9°C° 0.3 mm 10 m/s 737 mmHg 79%
    20:00 +9°C° 0.5 mm 10 m/s 737 mmHg 79%
    21:00 +9°C° 0.5 mm 11 m/s 736 mmHg 79%
    22:00 +11°C° 0.5 mm 11 m/s 735 mmHg 80%
    23:00 +11°C° 0.7 mm 11 m/s 735 mmHg 80%

    Mâine, 24 Octombrie, Miercuri

    Timp Temperatura Precipitaţii Vânt Presiune Umiditate
    00:00 +11°C° 0.7 mm 11 m/s 734 mmHg 80%
    01:00 +11°C° 0.7 mm 11 m/s 733 mmHg 81%
    02:00 +11°C° 1.2 mm 11 m/s 733 mmHg 79%
    03:00 +9°C° 1.2 mm 11 m/s 733 mmHg 78%
    04:00 +9°C° 1.2 mm 11 m/s 733 mmHg 77%
    05:00 +7°C° 0.3 mm 11 m/s 734 mmHg 74%
    06:00 +6°C° 0.3 mm 10 m/s 735 mmHg 72%
    07:00 +5°C° 0.3 mm 9 m/s 736 mmHg 69%
    08:00 +5°C° 0.1 mm 9 m/s 736 mmHg 67%
    09:00 +5°C° 0.1 mm 9 m/s 737 mmHg 65%
    10:00 +6°C° 0.1 mm 10 m/s 737 mmHg 63%
    11:00 +6°C° 0.1 mm 10 m/s 738 mmHg 60%
    12:00 +6°C° 0.1 mm 10 m/s 738 mmHg 57%
    13:00 +7°C° 0.1 mm 10 m/s 739 mmHg 54%
    14:00 +6°C° 0 mm 9 m/s 740 mmHg 53%
    15:00 +6°C° 0 mm 8 m/s 740 mmHg 52%
    16:00 +6°C° 0 mm 7 m/s 741 mmHg 51%
    17:00 +5°C° 0 mm 6 m/s 741 mmHg 55%
    18:00 +4°C° 0 mm 6 m/s 742 mmHg 58%
    19:00 +5°C° 0 mm 5 m/s 742 mmHg 61%
    20:00 +3°C° 0 mm 5 m/s 743 mmHg 63%
    21:00 +3°C° 0 mm 5 m/s 743 mmHg 65%
    22:00 +3°C° 0 mm 5 m/s 743 mmHg 66%
    23:00 +2°C° 0 mm 5 m/s 743 mmHg 70%

    Poimâine, 25 Octombrie, Joi

    Timp Temperatura Precipitaţii Vânt Presiune Umiditate
    00:00 +2°C° 0 mm 5 m/s 743 mmHg 73%
    01:00 +3°C° 0 mm 4 m/s 743 mmHg 76%
    02:00 +3°C° 0 mm 4 m/s 742 mmHg 78%
    03:00 +3°C° 0 mm 5 m/s 742 mmHg 79%
    04:00 +3°C° 0 mm 5 m/s 741 mmHg 81%
    05:00 +5°C° 0.4 mm 5 m/s 740 mmHg 83%
    06:00 +5°C° 0.4 mm 6 m/s 740 mmHg 85%
    07:00 +8°C° 0.4 mm 7 m/s 739 mmHg 87%
    08:00 +9°C° 0.1 mm 7 m/s 739 mmHg 84%
    09:00 +9°C° 0.1 mm 8 m/s 738 mmHg 81%
    10:00 +10°C° 0.1 mm 9 m/s 738 mmHg 78%
    11:00 +10°C° 0.1 mm 9 m/s 738 mmHg 77%
    12:00 +10°C° 0.1 mm 9 m/s 738 mmHg 75%
    13:00 +10°C° 0.1 mm 9 m/s 738 mmHg 73%
    14:00 +10°C° 0.1 mm 9 m/s 738 mmHg 75%
    15:00 +10°C° 0.1 mm 8 m/s 738 mmHg 76%
    16:00 +10°C° 0.1 mm 7 m/s 738 mmHg 77%
    17:00 +9°C° 0.1 mm 7 m/s 738 mmHg 78%
    18:00 +9°C° 0.1 mm 6 m/s 739 mmHg 79%
    19:00 +9°C° 0.1 mm 5 m/s 739 mmHg 80%
    20:00 +8°C° 0.1 mm 5 m/s 739 mmHg 80%
    21:00 +8°C° 0.1 mm 4 m/s 740 mmHg 80%
    22:00 +7°C° 0.1 mm 4 m/s 740 mmHg 80%
    23:00 +7°C° 0 mm 4 m/s 740 mmHg 82%

    26 Octombrie, Vineri

    Timp Temperatura Precipitaţii Vânt Presiune Umiditate
    00:00 +7°C° 0 mm 3 m/s 740 mmHg 84%
    01:00 +7°C° 0 mm 3 m/s 740 mmHg 85%
    02:00 +7°C° 0 mm 3 m/s 740 mmHg 86%
    03:00 +7°C° 0 mm 3 m/s 739 mmHg 88%
    04:00 +7°C° 0 mm 3 m/s 739 mmHg 89%
    05:00 +7°C° 0 mm 2 m/s 739 mmHg 90%
    06:00 +7°C° 0 mm 2 m/s 739 mmHg 92%
    07:00 +7°C° 0 mm 2 m/s 739 mmHg 93%
    08:00 +9°C° 0 mm 2 m/s 739 mmHg 87%
    09:00 +10°C° 0 mm 3 m/s 738 mmHg 81%
    10:00 +11°C° 0 mm 3 m/s 738 mmHg 76%
    11:00 +12°C° 0 mm 3 m/s 738 mmHg 72%
    12:00 +13°C° 0 mm 4 m/s 737 mmHg 68%
    13:00 +14°C° 0 mm 4 m/s 737 mmHg 65%
    14:00 +13°C° 0 mm 4 m/s 736 mmHg 67%
    15:00 +13°C° 0 mm 3 m/s 736 mmHg 68%
    16:00 +12°C° 0 mm 3 m/s 735 mmHg 70%
    17:00 +12°C° 0 mm 3 m/s 735 mmHg 72%
    18:00 +11°C° 0 mm 3 m/s 734 mmHg 74%
    19:00 +10°C° 0 mm 3 m/s 734 mmHg 76%
    20:00 +10°C° 0 mm 4 m/s 734 mmHg 76%
    21:00 +10°C° 0 mm 4 m/s 734 mmHg 76%
    22:00 +10°C° 0 mm 4 m/s 734 mmHg 76%
    23:00 +10°C° 0 mm 3 m/s 733 mmHg 78%

    27 Octombrie, Sâmbătă

    Timp Temperatura Precipitaţii Vânt Presiune Umiditate
    00:00 +10°C° 0 mm 3 m/s 733 mmHg 80%
    01:00 +9°C° 0 mm 3 m/s 733 mmHg 82%
    02:00 +9°C° 0 mm 3 m/s 733 mmHg 83%
    03:00 +8°C° 0 mm 3 m/s 733 mmHg 84%
    04:00 +8°C° 0 mm 3 m/s 733 mmHg 85%
    05:00 +8°C° 0.1 mm 3 m/s 733 mmHg 84%
    06:00 +8°C° 0.1 mm 3 m/s 733 mmHg 83%
    07:00 +8°C° 0.1 mm 3 m/s 733 mmHg 83%
    08:00 +8°C° 0.2 mm 3 m/s 734 mmHg 78%
    09:00 +8°C° 0.2 mm 3 m/s 734 mmHg 73%
    10:00 +7°C° 0.2 mm 4 m/s 734 mmHg 68%
    11:00 +8°C° 0 mm 4 m/s 734 mmHg 64%
    12:00 +8°C° 0 mm 4 m/s 734 mmHg 61%
    13:00 +8°C° 0 mm 4 m/s 734 mmHg 58%
    14:00 +7°C° 0 mm 4 m/s 734 mmHg 59%
    15:00 +8°C° 0 mm 3 m/s 734 mmHg 61%
    16:00 +8°C° 0 mm 2 m/s 733 mmHg 62%
    17:00 +7°C° 0 mm 2 m/s 734 mmHg 65%
    18:00 +7°C° 0 mm 2 m/s 734 mmHg 67%
    19:00 +6°C° 0 mm 2 m/s 734 mmHg 70%
    20:00 +6°C° 0 mm 2 m/s 734 mmHg 71%
    21:00 +6°C° 0 mm 2 m/s 733 mmHg 72%
    22:00 +6°C° 0 mm 2 m/s 733 mmHg 73%
    23:00 +6°C° 0.1 mm 2 m/s 733 mmHg 75%

    28 Octombrie, Duminică

    Timp Temperatura Precipitaţii Vânt Presiune Umiditate
    00:00 +5°C° 0.1 mm 2 m/s 733 mmHg 76%
    01:00 +5°C° 0.1 mm 2 m/s 733 mmHg 78%
    02:00 +5°C° 0.1 mm 2 m/s 733 mmHg 78%
    03:00 +6°C° 0.1 mm 1 m/s 733 mmHg 79%
    04:00 +5°C° 0.1 mm 1 m/s 732 mmHg 80%
    05:00 +5°C° 0.1 mm 1 m/s 732 mmHg 80%
    06:00 +5°C° 0.1 mm 1 m/s 733 mmHg 80%
    07:00 +5°C° 0.1 mm 1 m/s 733 mmHg 80%
    08:00 +5°C° 0.1 mm 2 m/s 733 mmHg 75%
    09:00 +5°C° 0.1 mm 2 m/s 734 mmHg 71%
    10:00 +5°C° 0.1 mm 3 m/s 734 mmHg 67%
    11:00 +5°C° 0 mm 3 m/s 735 mmHg 63%
    12:00 +7°C° 0 mm 3 m/s 735 mmHg 59%
    13:00 +7°C° 0 mm 3 m/s 736 mmHg 56%
    14:00 +7°C° 0 mm 3 m/s 736 mmHg 58%
    15:00 +7°C° 0 mm 2 m/s 736 mmHg 61%
    16:00 +6°C° 0 mm 2 m/s 737 mmHg 63%
    17:00 +5°C° 0 mm 2 m/s 737 mmHg 68%
    18:00 +4°C° 0 mm 2 m/s 738 mmHg 73%
    19:00 +3°C° 0 mm 2 m/s 738 mmHg 78%
    20:00 +3°C° 0 mm 2 m/s 739 mmHg 79%
    21:00 +3°C° 0 mm 2 m/s 739 mmHg 81%
    22:00 +3°C° 0 mm 2 m/s 739 mmHg 83%
    23:00 +2°C° 0 mm 2 m/s 740 mmHg 84%
    Arată mai mult